Station Historical Data
Daily Summary for May 23, 2017 Units:  English    Metric   Both
Next Day »
Daily Weekly Monthly Yearly Custom
  High: Low: Average:
Temperature: 86.5 °F 66.1 °F 74.9 °F
Dew Point: 57.6 °F 48.9 °F 53.2 °F
Humidity: 59% 30% 48%
Wind Speed: 12.0mph 0.0mph 1.5mph
Wind Gust: 17.0mph - -
Wind- - SSE
Pressure: 29.93 in 29.84 in -
Precipitation: 0.00 in    
Historical Graphs
 
 
Tabular Data for May 23, 2017
Time Temperature Dew Point Pressure Wind Wind Speed Wind Gust Humidity Rainfall Rate (Hourly) solar Conditions
00:02 69.6 °F 54.2 °F 29.93 in ESE 2.0 mph 5.0 mph 58% 0.00 in 0.00 W/m2
00:07 69.5 °F 54.1 °F 29.93 in ESE 4.0 mph 5.0 mph 58% 0.00 in 0.00 W/m2
00:12 69.5 °F 54.6 °F 29.93 in ESE 2.0 mph 6.0 mph 59% 0.00 in 0.00 W/m2
00:17 69.5 °F 54.1 °F 29.93 in East 4.0 mph 5.0 mph 58% 0.00 in 0.00 W/m2
00:22 69.4 °F 54.0 °F 29.93 in Calm   6.0 mph 58% 0.00 in 0.00 W/m2
00:27 69.4 °F 54.0 °F 29.93 in Calm   5.0 mph 58% 0.00 in 0.00 W/m2
00:32 69.4 °F 54.0 °F 29.93 in East 4.0 mph 5.0 mph 58% 0.00 in 0.00 W/m2
00:37 69.3 °F 53.9 °F 29.93 in East 5.0 mph 6.0 mph 58% 0.00 in 0.00 W/m2
00:42 69.3 °F 53.9 °F 29.93 in Calm   5.0 mph 58% 0.00 in 0.00 W/m2
00:47 69.2 °F 53.8 °F 29.93 in Calm   5.0 mph 58% 0.00 in 0.00 W/m2
00:52 69.2 °F 53.3 °F 29.93 in East 4.0 mph 4.0 mph 57% 0.00 in 0.00 W/m2
00:57 69.2 °F 53.3 °F 29.93 in Calm   5.0 mph 57% 0.00 in 0.00 W/m2
01:02 69.1 °F 53.7 °F 29.93 in East 2.0 mph 4.0 mph 58% 0.00 in 0.00 W/m2
01:07 69.1 °F 53.7 °F 29.93 in Calm   6.0 mph 58% 0.00 in 0.00 W/m2
01:12 69.0 °F 53.6 °F 29.93 in East 1.0 mph 5.0 mph 58% 0.00 in 0.00 W/m2
01:17 68.9 °F 53.5 °F 29.93 in East 2.0 mph 4.0 mph 58% 0.00 in 0.00 W/m2
01:22 68.9 °F 53.5 °F 29.92 in ESE 5.0 mph 6.0 mph 58% 0.00 in 0.00 W/m2
01:27 68.8 °F 53.0 °F 29.93 in Calm   6.0 mph 57% 0.00 in 0.00 W/m2
01:32 68.6 °F 52.8 °F 29.92 in ESE 1.0 mph 4.0 mph 57% 0.00 in 0.00 W/m2
01:37 68.6 °F 52.8 °F 29.92 in ESE 4.0 mph 4.0 mph 57% 0.00 in 0.00 W/m2
01:42 68.5 °F 52.2 °F 29.92 in Calm   2.0 mph 56% 0.00 in 0.00 W/m2
01:47 68.4 °F 52.6 °F 29.92 in ESE 1.0 mph 4.0 mph 57% 0.00 in 0.00 W/m2
01:52 68.3 °F 52.5 °F 29.92 in ESE 4.0 mph 4.0 mph 57% 0.00 in 0.00 W/m2
01:57 68.2 °F 52.4 °F 29.92 in ESE 1.0 mph 4.0 mph 57% 0.00 in 0.00 W/m2
02:02 68.2 °F 52.4 °F 29.92 in Calm   5.0 mph 57% 0.00 in 0.00 W/m2
02:07 68.1 °F 52.3 °F 29.92 in Calm   4.0 mph 57% 0.00 in 0.00 W/m2
02:12 68.0 °F 51.7 °F 29.92 in ESE 2.0 mph 4.0 mph 56% 0.00 in 0.00 W/m2
02:17 67.9 °F 52.1 °F 29.92 in ESE 2.0 mph 2.0 mph 57% 0.00 in 0.00 W/m2
02:22 67.9 °F 52.6 °F 29.91 in Calm   2.0 mph 58% 0.00 in 0.00 W/m2
02:27 67.8 °F 52.5 °F 29.92 in Calm   2.0 mph 58% 0.00 in 0.00 W/m2
02:32 67.7 °F 51.9 °F 29.92 in ESE 2.0 mph 4.0 mph 57% 0.00 in 0.00 W/m2
02:37 67.7 °F 51.9 °F 29.92 in Calm   2.0 mph 57% 0.00 in 0.00 W/m2
02:42 67.6 °F 51.8 °F 29.92 in Calm   4.0 mph 57% 0.00 in 0.00 W/m2
02:47 67.6 °F 51.8 °F 29.91 in Calm   2.0 mph 57% 0.00 in 0.00 W/m2
02:52 67.5 °F 51.8 °F 29.91 in East 1.0 mph 4.0 mph 57% 0.00 in 0.00 W/m2
02:57 67.4 °F 52.1 °F 29.91 in Calm     58% 0.00 in 0.00 W/m2
03:02 67.4 °F 51.7 °F 29.91 in Calm     57% 0.00 in 0.00 W/m2
03:07 67.3 °F 51.6 °F 29.92 in Calm     57% 0.00 in 0.00 W/m2
03:12 67.2 °F 51.5 °F 29.91 in Calm     57% 0.00 in 0.00 W/m2
03:17 67.2 °F 51.0 °F 29.91 in Calm   2.0 mph 56% 0.00 in 0.00 W/m2
03:22 67.1 °F 50.9 °F 29.92 in ESE 1.0 mph 4.0 mph 56% 0.00 in 0.00 W/m2
03:27 67.1 °F 50.9 °F 29.92 in Calm   5.0 mph 56% 0.00 in 0.00 W/m2
03:32 67.0 °F 51.3 °F 29.91 in ESE 1.0 mph 5.0 mph 57% 0.00 in 0.00 W/m2
03:37 67.0 °F 51.3 °F 29.91 in Calm   4.0 mph 57% 0.00 in 0.00 W/m2
03:42 66.9 °F 51.2 °F 29.91 in Calm     57% 0.00 in 0.00 W/m2
03:47 66.9 °F 51.2 °F 29.91 in Calm     57% 0.00 in 0.00 W/m2
03:52 66.8 °F 51.6 °F 29.91 in ESE 1.0 mph 4.0 mph 58% 0.00 in 0.00 W/m2
03:57 66.8 °F 51.1 °F 29.91 in ESE 1.0 mph 5.0 mph 57% 0.00 in 0.00 W/m2
04:03 66.7 °F 51.0 °F 29.91 in ESE 1.0 mph 5.0 mph 57% 0.00 in 0.00 W/m2
04:08 66.7 °F 51.0 °F 29.91 in ESE 1.0 mph 4.0 mph 57% 0.00 in 0.00 W/m2
04:13 66.6 °F 51.4 °F 29.91 in ESE 1.0 mph 4.0 mph 58% 0.00 in 0.00 W/m2
04:18 66.6 °F 51.4 °F 29.91 in ESE 2.0 mph 4.0 mph 58% 0.00 in 0.00 W/m2
04:23 66.6 °F 51.4 °F 29.91 in Calm   5.0 mph 58% 0.00 in 0.00 W/m2
04:28 66.5 °F 50.8 °F 29.91 in ESE 2.0 mph 5.0 mph 57% 0.00 in 0.00 W/m2
04:33 66.5 °F 50.8 °F 29.91 in ESE 1.0 mph 7.0 mph 57% 0.00 in 0.00 W/m2
04:38 66.5 °F 51.3 °F 29.90 in ESE 2.0 mph 7.0 mph 58% 0.00 in 0.00 W/m2
04:43 66.4 °F 50.7 °F 29.90 in Calm   4.0 mph 57% 0.00 in 0.00 W/m2
04:48 66.4 °F 50.2 °F 29.90 in Calm   5.0 mph 56% 0.00 in 0.00 W/m2
04:53 66.4 °F 50.7 °F 29.90 in ESE 1.0 mph 7.0 mph 57% 0.00 in 0.00 W/m2
04:58 66.4 °F 50.7 °F 29.91 in Calm   6.0 mph 57% 0.00 in 0.00 W/m2
05:03 66.3 °F 50.6 °F 29.91 in East 2.0 mph 7.0 mph 57% 0.00 in 0.00 W/m2
05:08 66.3 °F 50.6 °F 29.91 in ESE 1.0 mph 5.0 mph 57% 0.00 in 0.00 W/m2
05:13 66.3 °F 50.2 °F 29.91 in ESE 1.0 mph 6.0 mph 56% 0.00 in 0.00 W/m2
05:18 66.3 °F 50.6 °F 29.91 in East 2.0 mph 6.0 mph 57% 0.00 in 0.00 W/m2
05:23 66.2 °F 50.5 °F 29.91 in Calm   4.0 mph 57% 0.00 in 0.00 W/m2
05:28 66.2 °F 49.6 °F 29.91 in East 1.0 mph 2.0 mph 55% 0.00 in 0.00 W/m2
05:33 66.2 °F 50.1 °F 29.91 in Calm   5.0 mph 56% 0.00 in 0.00 W/m2
05:38 66.1 °F 50.4 °F 29.91 in Calm   5.0 mph 57% 0.00 in 0.00 W/m2
05:43 66.1 °F 50.4 °F 29.91 in East 4.0 mph 5.0 mph 57% 0.00 in 5.00 W/m2
05:48 66.1 °F 50.4 °F 29.91 in East 1.0 mph 4.0 mph 57% 0.00 in 7.00 W/m2
05:53 66.1 °F 50.0 °F 29.91 in East 2.0 mph 6.0 mph 56% 0.00 in 9.00 W/m2
05:58 66.1 °F 50.0 °F 29.91 in Calm   4.0 mph 56% 0.00 in 12.00 W/m2
06:03 66.1 °F 50.0 °F 29.91 in East 2.0 mph 6.0 mph 56% 0.00 in 14.00 W/m2
06:08 66.1 °F 50.0 °F 29.91 in East 3.0 mph 8.0 mph 56% 0.00 in 18.00 W/m2
06:13 66.1 °F 50.0 °F 29.91 in East 1.0 mph 8.0 mph 56% 0.00 in 21.00 W/m2
06:18 66.2 °F 49.6 °F 29.91 in East 6.0 mph 9.0 mph 55% 0.00 in 30.00 W/m2
06:23 66.2 °F 50.1 °F 29.91 in East 8.0 mph 8.0 mph 56% 0.00 in 39.00 W/m2
06:28 66.2 °F 49.6 °F 29.91 in East 8.0 mph 8.0 mph 55% 0.00 in 51.00 W/m2
06:33 66.3 °F 50.2 °F 29.91 in East 6.0 mph 11.0 mph 56% 0.00 in 63.00 W/m2
06:38 66.3 °F 50.2 °F 29.91 in East 4.0 mph 11.0 mph 56% 0.00 in 79.00 W/m2
06:43 66.4 °F 50.2 °F 29.91 in East 3.0 mph 12.0 mph 56% 0.00 in 95.00 W/m2
06:48 66.4 °F 50.2 °F 29.91 in East 4.0 mph 12.0 mph 56% 0.00 in 111.00 W/m2
06:53 66.5 °F 50.3 °F 29.91 in ESE 2.0 mph 11.0 mph 56% 0.00 in 127.00 W/m2
06:58 66.5 °F 49.8 °F 29.92 in East 6.0 mph 7.0 mph 55% 0.00 in 142.00 W/m2
07:03 66.5 °F 49.8 °F 29.92 in Calm   8.0 mph 55% 0.00 in 165.00 W/m2
07:08 66.5 °F 48.9 °F 29.92 in ESE 1.0 mph 12.0 mph 53% 0.00 in 178.00 W/m2
07:13 66.6 °F 49.0 °F 29.92 in Calm   11.0 mph 53% 0.00 in 202.00 W/m2
07:19 66.7 °F 49.0 °F 29.92 in ESE 2.0 mph 9.0 mph 53% 0.00 in 223.00 W/m2
07:24 66.8 °F 49.1 °F 29.92 in East 2.0 mph 8.0 mph 53% 0.00 in 244.00 W/m2
07:29 66.9 °F 49.7 °F 29.92 in ESE 4.0 mph 15.0 mph 54% 0.00 in 264.00 W/m2
07:34 67.0 °F 49.3 °F 29.92 in ESE 4.0 mph 13.0 mph 53% 0.00 in 281.00 W/m2
07:39 67.2 °F 49.5 °F 29.92 in ESE 1.0 mph 8.0 mph 53% 0.00 in 299.00 W/m2
07:44 67.3 °F 49.6 °F 29.92 in Calm   12.0 mph 53% 0.00 in 313.00 W/m2
07:49 67.4 °F 50.2 °F 29.92 in Calm   12.0 mph 54% 0.00 in 325.00 W/m2
07:54 67.5 °F 49.8 °F 29.92 in ESE 2.0 mph 7.0 mph 53% 0.00 in 346.00 W/m2
07:59 67.7 °F 50.5 °F 29.92 in ESE 4.0 mph 12.0 mph 54% 0.00 in 364.00 W/m2
08:04 67.9 °F 50.2 °F 29.92 in ESE 2.0 mph 11.0 mph 53% 0.00 in 381.00 W/m2
08:09 68.1 °F 50.8 °F 29.92 in ESE 2.0 mph 8.0 mph 54% 0.00 in 397.00 W/m2
08:14 68.2 °F 51.4 °F 29.92 in East 3.0 mph 9.0 mph 55% 0.00 in 413.00 W/m2
08:19 68.4 °F 52.1 °F 29.92 in ESE 1.0 mph 9.0 mph 56% 0.00 in 429.00 W/m2
08:24 68.6 °F 51.8 °F 29.92 in ESE 1.0 mph 11.0 mph 55% 0.00 in 445.00 W/m2
08:29 68.9 °F 52.6 °F 29.92 in East 5.0 mph 9.0 mph 56% 0.00 in 459.00 W/m2
08:34 69.1 °F 52.8 °F 29.92 in SE 2.0 mph 8.0 mph 56% 0.00 in 475.00 W/m2
08:39 69.4 °F 52.5 °F 29.92 in East 2.0 mph 11.0 mph 55% 0.00 in 494.00 W/m2
08:44 69.7 °F 53.3 °F 29.92 in ESE 5.0 mph 5.0 mph 56% 0.00 in 512.00 W/m2
08:49 69.9 °F 52.5 °F 29.92 in ESE 2.0 mph 7.0 mph 54% 0.00 in 524.00 W/m2
08:54 70.2 °F 52.8 °F 29.92 in ESE 4.0 mph 6.0 mph 54% 0.00 in 540.00 W/m2
08:59 70.5 °F 53.1 °F 29.93 in Calm   4.0 mph 54% 0.00 in 555.00 W/m2
09:04 70.8 °F 54.3 °F 29.93 in ESE 2.0 mph 4.0 mph 56% 0.00 in 570.00 W/m2
09:09 71.1 °F 54.6 °F 29.93 in Calm   2.0 mph 56% 0.00 in 587.00 W/m2
09:14 71.4 °F 55.9 °F 29.93 in ESE 1.0 mph 6.0 mph 58% 0.00 in 601.00 W/m2
09:19 71.7 °F 56.2 °F 29.93 in Calm   2.0 mph 58% 0.00 in 596.00 W/m2
09:24 72.1 °F 56.5 °F 29.93 in ESE 1.0 mph 5.0 mph 58% 0.00 in 631.00 W/m2
09:29 72.3 °F 54.7 °F 29.92 in Calm   2.0 mph 54% 0.00 in 643.00 W/m2
09:34 72.6 °F 56.5 °F 29.92 in Calm   2.0 mph 57% 0.00 in 657.00 W/m2
09:39 73.0 °F 57.4 °F 29.92 in Calm     58% 0.00 in 671.00 W/m2
09:44 73.2 °F 55.1 °F 29.92 in ESE 5.0 mph 7.0 mph 53% 0.00 in 686.00 W/m2
09:49 73.5 °F 53.2 °F 29.92 in SE 2.0 mph 7.0 mph 49% 0.00 in 698.00 W/m2
09:54 73.8 °F 52.9 °F 29.92 in Calm   6.0 mph 48% 0.00 in 710.00 W/m2
09:59 74.3 °F 53.9 °F 29.92 in Calm   6.0 mph 49% 0.00 in 722.00 W/m2
10:04 74.6 °F 53.1 °F 29.93 in Calm   6.0 mph 47% 0.00 in 735.00 W/m2
10:09 75.0 °F 51.6 °F 29.93 in Calm   7.0 mph 44% 0.00 in 745.00 W/m2
10:14 75.4 °F 52.6 °F 29.93 in Calm   1.0 mph 45% 0.00 in 758.00 W/m2
10:19 75.8 °F 54.2 °F 29.93 in South 4.0 mph 7.0 mph 47% 0.00 in 770.00 W/m2
10:24 76.2 °F 52.7 °F 29.93 in Calm   7.0 mph 44% 0.00 in 780.00 W/m2
10:29 76.6 °F 53.7 °F 29.93 in SSW 3.0 mph 6.0 mph 45% 0.00 in 780.00 W/m2
10:34 77.1 °F 54.8 °F 29.92 in Calm   6.0 mph 46% 0.00 in 807.00 W/m2
10:39 77.5 °F 53.9 °F 29.92 in SSW 1.0 mph 7.0 mph 44% 0.00 in 809.00 W/m2
10:44 77.9 °F 54.9 °F 29.92 in SW 3.0 mph 6.0 mph 45% 0.00 in 826.00 W/m2
10:49 78.2 °F 54.5 °F 29.92 in Calm   1.0 mph 44% 0.00 in 833.00 W/m2
10:54 78.5 °F 54.8 °F 29.92 in SW 4.0 mph 4.0 mph 44% 0.00 in 842.00 W/m2
10:59 78.8 °F 54.4 °F 29.92 in Calm   8.0 mph 43% 0.00 in 849.00 W/m2
11:04 79.0 °F 54.6 °F 29.92 in Calm   6.0 mph 43% 0.00 in 860.00 W/m2
11:09 79.3 °F 56.1 °F 29.92 in Calm   1.0 mph 45% 0.00 in 867.00 W/m2
11:14 79.6 °F 56.4 °F 29.92 in South 8.0 mph 8.0 mph 45% 0.00 in 875.00 W/m2
11:19 80.0 °F 56.2 °F 29.92 in Calm   8.0 mph 44% 0.00 in 882.00 W/m2
11:24 80.3 °F 55.8 °F 29.92 in SW 8.0 mph 8.0 mph 43% 0.00 in 888.00 W/m2
11:29 80.7 °F 56.8 °F 29.92 in Calm   7.0 mph 44% 0.00 in 893.00 W/m2
11:34 81.0 °F 57.1 °F 29.92 in Calm   8.0 mph 44% 0.00 in 900.00 W/m2
11:39 81.3 °F 57.3 °F 29.92 in Calm   10.0 mph 44% 0.00 in 905.00 W/m2
11:44 81.6 °F 57.6 °F 29.92 in WSW 1.0 mph 3.0 mph 44% 0.00 in 911.00 W/m2
11:49 82.0 °F 57.3 °F 29.92 in SW 2.0 mph 8.0 mph 43% 0.00 in 918.00 W/m2
11:54 82.3 °F 54.9 °F 29.92 in Calm   8.0 mph 39% 0.00 in 923.00 W/m2
11:59 82.3 °F 53.5 °F 29.92 in Calm   2.0 mph 37% 0.00 in 930.00 W/m2
12:04 82.3 °F 54.9 °F 29.93 in SW 7.0 mph 8.0 mph 39% 0.00 in 921.00 W/m2
12:09 82.3 °F 54.9 °F 29.92 in SW 7.0 mph 8.0 mph 39% 0.00 in 930.00 W/m2
12:14 82.3 °F 54.9 °F 29.92 in South 5.0 mph 9.0 mph 39% 0.00 in 940.00 W/m2
12:19 82.5 °F 54.4 °F 29.92 in SW 12.0 mph 12.0 mph 38% 0.00 in 944.00 W/m2
12:24 82.7 °F 55.2 °F 29.93 in Calm   6.0 mph 39% 0.00 in 946.00 W/m2
12:29 83.0 °F 55.5 °F 29.93 in WSW 3.0 mph 9.0 mph 39% 0.00 in 953.00 W/m2
12:34 83.2 °F 55.7 °F 29.92 in Calm   2.0 mph 39% 0.00 in 956.00 W/m2
12:39 83.5 °F 54.5 °F 29.92 in Calm   8.0 mph 37% 0.00 in 954.00 W/m2
12:44 83.6 °F 56.8 °F 29.92 in West 2.0 mph 12.0 mph 40% 0.00 in 954.00 W/m2
12:49 83.6 °F 56.0 °F 29.92 in WSW 2.0 mph 11.0 mph 39% 0.00 in 953.00 W/m2
12:54 83.7 °F 55.4 °F 29.92 in WSW 7.0 mph 10.0 mph 38% 0.00 in 958.00 W/m2
12:59 84.1 °F 55.8 °F 29.92 in SSW 1.0 mph 9.0 mph 38% 0.00 in 953.00 W/m2
13:04 84.7 °F 56.3 °F 29.92 in SW 5.0 mph 10.0 mph 38% 0.00 in 956.00 W/m2
13:09 85.2 °F 55.3 °F 29.92 in SW 4.0 mph 4.0 mph 36% 0.00 in 956.00 W/m2
13:14 85.6 °F 54.8 °F 29.92 in Calm   7.0 mph 35% 0.00 in 954.00 W/m2
13:19 85.9 °F 57.4 °F 29.92 in Calm   9.0 mph 38% 0.00 in 949.00 W/m2
13:25 86.4 °F 56.3 °F 29.92 in WSW 6.0 mph 8.0 mph 36% 0.00 in 947.00 W/m2
13:30 86.5 °F 56.4 °F 29.91 in WSW 7.0 mph 10.0 mph 36% 0.00 in 946.00 W/m2
13:35 86.4 °F 55.5 °F 29.92 in Calm   3.0 mph 35% 0.00 in 937.00 W/m2
13:40 85.8 °F 54.2 °F 29.92 in Calm   8.0 mph 34% 0.00 in 940.00 W/m2
13:45 85.1 °F 55.9 °F 29.91 in Calm   7.0 mph 37% 0.00 in 914.00 W/m2
13:50 84.9 °F 55.0 °F 29.91 in Calm   12.0 mph 36% 0.00 in 935.00 W/m2
13:55 84.8 °F 55.7 °F 29.92 in WSW 9.0 mph 9.0 mph 37% 0.00 in 932.00 W/m2
14:00 84.8 °F 54.1 °F 29.91 in SW 5.0 mph 11.0 mph 35% 0.00 in 933.00 W/m2
14:05 85.0 °F 55.1 °F 29.91 in Calm   8.0 mph 36% 0.00 in 925.00 W/m2
14:10 85.2 °F 54.5 °F 29.91 in Calm   2.0 mph 35% 0.00 in 912.00 W/m2
14:15 85.5 °F 55.5 °F 29.91 in Calm   1.0 mph 36% 0.00 in 914.00 W/m2
14:20 85.6 °F 54.8 °F 29.91 in WSW 7.0 mph 9.0 mph 35% 0.00 in 905.00 W/m2
14:30 85.6 °F 53.2 °F 29.91 in Calm   3.0 mph 33% 0.00 in 893.00 W/m2
14:35 85.6 °F 53.2 °F 29.90 in Calm   8.0 mph 33% 0.00 in 889.00 W/m2
14:40 85.7 °F 54.1 °F 29.90 in WSW 2.0 mph 3.0 mph 34% 0.00 in 875.00 W/m2
14:45 85.9 °F 54.3 °F 29.90 in Calm   5.0 mph 34% 0.00 in 858.00 W/m2
14:50 86.1 °F 54.5 °F 29.90 in Calm   2.0 mph 34% 0.00 in 853.00 W/m2
14:55 86.1 °F 53.7 °F 29.90 in SSW 6.0 mph 12.0 mph 33% 0.00 in 858.00 W/m2
15:00 86.2 °F 52.9 °F 29.90 in SSW 7.0 mph 12.0 mph 32% 0.00 in 844.00 W/m2
15:05 86.3 °F 53.8 °F 29.90 in Calm   6.0 mph 33% 0.00 in 837.00 W/m2
15:10 86.2 °F 52.9 °F 29.90 in Calm   9.0 mph 32% 0.00 in 821.00 W/m2
15:15 85.8 °F 50.8 °F 29.90 in West 3.0 mph 17.0 mph 30% 0.00 in 810.00 W/m2
15:20 85.6 °F 52.4 °F 29.90 in WSW 9.0 mph 9.0 mph 32% 0.00 in 805.00 W/m2
15:25 85.5 °F 51.4 °F 29.90 in Calm   13.0 mph 31% 0.00 in 786.00 W/m2
15:30 85.5 °F 53.1 °F 29.90 in Calm   10.0 mph 33% 0.00 in 777.00 W/m2
15:35 85.4 °F 53.9 °F 29.90 in Calm   3.0 mph 34% 0.00 in 761.00 W/m2
15:40 85.3 °F 53.8 °F 29.90 in Calm   8.0 mph 34% 0.00 in 745.00 W/m2
15:46 85.2 °F 52.0 °F 29.89 in Calm   7.0 mph 32% 0.00 in 745.00 W/m2
15:50 85.2 °F 52.9 °F 29.89 in SW 7.0 mph 8.0 mph 33% 0.00 in 728.00 W/m2
15:51 85.2 °F 52.9 °F 29.89 in SW 6.0 mph 6.0 mph 33% 0.00 in 728.00 W/m2
16:01 85.4 °F 53.9 °F 29.89 in Calm   11.0 mph 34% 0.00 in 701.00 W/m2
16:06 85.4 °F 53.9 °F 29.89 in WNW 1.0 mph 8.0 mph 34% 0.00 in 693.00 W/m2
16:11 85.4 °F 53.0 °F 29.89 in Calm   5.0 mph 33% 0.00 in 679.00 W/m2
16:16 85.2 °F 53.7 °F 29.89 in West 2.0 mph 7.0 mph 34% 0.00 in 666.00 W/m2
16:21 85.1 °F 52.8 °F 29.89 in Calm   7.0 mph 33% 0.00 in 650.00 W/m2
16:26 85.1 °F 53.6 °F 29.88 in Calm   11.0 mph 34% 0.00 in 643.00 W/m2
16:31 85.0 °F 53.5 °F 29.88 in WSW 7.0 mph 8.0 mph 34% 0.00 in 635.00 W/m2
16:36 85.0 °F 52.7 °F 29.88 in Calm   9.0 mph 33% 0.00 in 606.00 W/m2
16:41 85.0 °F 53.5 °F 29.88 in Calm   6.0 mph 34% 0.00 in 596.00 W/m2
16:46 84.9 °F 55.0 °F 29.88 in WNW 4.0 mph 4.0 mph 36% 0.00 in 580.00 W/m2
16:51 84.8 °F 54.1 °F 29.88 in NW 1.0 mph 6.0 mph 35% 0.00 in 568.00 W/m2
16:56 84.8 °F 54.1 °F 29.88 in NW 3.0 mph 7.0 mph 35% 0.00 in 554.00 W/m2
17:01 84.7 °F 52.4 °F 29.88 in Calm   8.0 mph 33% 0.00 in 540.00 W/m2
17:06 84.5 °F 53.1 °F 29.87 in NW 1.0 mph 5.0 mph 34% 0.00 in 526.00 W/m2
17:11 84.5 °F 53.9 °F 29.87 in West 4.0 mph 7.0 mph 35% 0.00 in 512.00 W/m2
17:16 84.4 °F 51.3 °F 29.87 in Calm   5.0 mph 32% 0.00 in 494.00 W/m2
17:21 84.4 °F 52.2 °F 29.87 in West 4.0 mph 4.0 mph 33% 0.00 in 476.00 W/m2
17:26 84.3 °F 52.9 °F 29.87 in Calm   5.0 mph 34% 0.00 in 461.00 W/m2
17:31 84.3 °F 53.7 °F 29.87 in Calm   6.0 mph 35% 0.00 in 452.00 W/m2
17:36 84.1 °F 53.5 °F 29.87 in Calm   8.0 mph 35% 0.00 in 432.00 W/m2
17:41 83.9 °F 52.6 °F 29.87 in Calm   7.0 mph 34% 0.00 in 422.00 W/m2
17:46 83.8 °F 54.0 °F 29.87 in Calm   5.0 mph 36% 0.00 in 403.00 W/m2
17:51 83.7 °F 53.9 °F 29.87 in WNW 3.0 mph 6.0 mph 36% 0.00 in 385.00 W/m2
17:56 83.6 °F 53.8 °F 29.87 in Calm   5.0 mph 36% 0.00 in 367.00 W/m2
18:01 83.5 °F 53.8 °F 29.86 in WNW 1.0 mph 5.0 mph 36% 0.00 in 348.00 W/m2
18:06 83.4 °F 52.1 °F 29.86 in Calm     34% 0.00 in 325.00 W/m2
18:11 83.3 °F 52.0 °F 29.86 in Calm     34% 0.00 in 316.00 W/m2
18:16 83.3 °F 55.1 °F 29.86 in Calm     38% 0.00 in 302.00 W/m2
18:21 83.2 °F 54.2 °F 29.86 in Calm     37% 0.00 in 285.00 W/m2
18:26 83.1 °F 55.6 °F 29.86 in WNW 1.0 mph 1.0 mph 39% 0.00 in 271.00 W/m2
18:31 82.9 °F 56.1 °F 29.86 in Calm     40% 0.00 in 253.00 W/m2
18:36 82.7 °F 56.6 °F 29.86 in Calm     41% 0.00 in 234.00 W/m2
18:37 82.6 °F 56.5 °F 29.86 in Calm     41% 0.00 in 230.00 W/m2
18:42 82.4 °F 57.0 °F 29.85 in Calm   3.0 mph 42% 0.00 in 216.00 W/m2
18:47 82.1 °F 56.8 °F 29.85 in WNW 6.0 mph 6.0 mph 42% 0.00 in 200.00 W/m2
18:52 81.8 °F 57.1 °F 29.85 in Calm     43% 0.00 in 185.00 W/m2
18:57 81.5 °F 56.9 °F 29.85 in Calm     43% 0.00 in 169.00 W/m2
19:02 81.2 °F 57.2 °F 29.85 in WNW 2.0 mph 2.0 mph 44% 0.00 in 151.00 W/m2
19:07 80.9 °F 57.0 °F 29.85 in Calm     44% 0.00 in 132.00 W/m2
19:12 80.5 °F 56.6 °F 29.85 in Calm   2.0 mph 44% 0.00 in 114.00 W/m2
19:17 80.2 °F 56.3 °F 29.85 in Calm   1.0 mph 44% 0.00 in 98.00 W/m2
19:22 80.0 °F 56.2 °F 29.85 in Calm     44% 0.00 in 81.00 W/m2
19:27 79.7 °F 56.5 °F 29.85 in Calm     45% 0.00 in 65.00 W/m2
19:32 79.4 °F 56.8 °F 29.85 in Calm     46% 0.00 in 51.00 W/m2
19:37 79.0 °F 56.5 °F 29.85 in Calm     46% 0.00 in 40.00 W/m2
19:42 78.6 °F 56.7 °F 29.85 in Calm     47% 0.00 in 32.00 W/m2
19:47 78.1 °F 56.2 °F 29.85 in Calm     47% 0.00 in 25.00 W/m2
19:52 77.8 °F 56.0 °F 29.85 in Calm     47% 0.00 in 18.00 W/m2
19:57 77.3 °F 56.1 °F 29.85 in Calm     48% 0.00 in 14.00 W/m2
20:02 76.9 °F 55.7 °F 29.86 in Calm     48% 0.00 in 12.00 W/m2
20:07 76.5 °F 55.4 °F 29.85 in Calm     48% 0.00 in 11.00 W/m2
20:12 76.1 °F 55.0 °F 29.85 in Calm     48% 0.00 in 7.00 W/m2
20:17 75.7 °F 54.1 °F 29.85 in Calm     47% 0.00 in 5.00 W/m2
20:22 75.4 °F 54.4 °F 29.86 in Calm     48% 0.00 in 0.00 W/m2
20:27 75.1 °F 54.1 °F 29.85 in Calm     48% 0.00 in 0.00 W/m2
20:32 74.7 °F 53.7 °F 29.86 in Calm     48% 0.00 in 0.00 W/m2
20:37 74.4 °F 53.5 °F 29.85 in Calm     48% 0.00 in 0.00 W/m2
20:42 74.2 °F 53.8 °F 29.85 in Calm     49% 0.00 in 0.00 W/m2
20:47 73.9 °F 53.0 °F 29.85 in Calm     48% 0.00 in 0.00 W/m2
20:52 73.6 °F 53.3 °F 29.85 in Calm     49% 0.00 in 0.00 W/m2
20:57 73.3 °F 52.5 °F 29.85 in Calm     48% 0.00 in 0.00 W/m2
21:02 73.1 °F 52.3 °F 29.85 in Calm     48% 0.00 in 0.00 W/m2
21:07 72.9 °F 51.5 °F 29.85 in Calm     47% 0.00 in 0.00 W/m2
21:13 72.8 °F 50.8 °F 29.85 in Calm     46% 0.00 in 0.00 W/m2
21:18 72.6 °F 50.7 °F 29.86 in Calm     46% 0.00 in 0.00 W/m2
21:23 72.5 °F 51.2 °F 29.86 in Calm     47% 0.00 in 0.00 W/m2
21:28 72.3 °F 51.0 °F 29.86 in Calm     47% 0.00 in 0.00 W/m2
21:33 72.2 °F 50.9 °F 29.86 in Calm     47% 0.00 in 0.00 W/m2
21:38 72.0 °F 50.1 °F 29.86 in Calm     46% 0.00 in 0.00 W/m2
21:43 71.9 °F 50.0 °F 29.86 in Calm     46% 0.00 in 0.00 W/m2
21:48 71.8 °F 50.5 °F 29.86 in Calm     47% 0.00 in 0.00 W/m2
21:53 71.7 °F 50.4 °F 29.86 in Calm     47% 0.00 in 0.00 W/m2
21:58 71.6 °F 50.3 °F 29.86 in Calm     47% 0.00 in 0.00 W/m2
22:03 71.5 °F 50.8 °F 29.86 in Calm     48% 0.00 in 0.00 W/m2
22:08 71.4 °F 51.3 °F 29.86 in Calm   1.0 mph 49% 0.00 in 0.00 W/m2
22:13 71.3 °F 51.7 °F 29.86 in Calm     50% 0.00 in 0.00 W/m2
22:18 71.2 °F 52.2 °F 29.86 in Calm     51% 0.00 in 0.00 W/m2
22:23 71.2 °F 52.7 °F 29.86 in Calm   1.0 mph 52% 0.00 in 0.00 W/m2
22:28 71.1 °F 52.6 °F 29.86 in Calm   1.0 mph 52% 0.00 in 0.00 W/m2
22:30 71.1 °F 53.1 °F 29.86 in Calm   1.0 mph 53% 0.00 in 0.00 W/m2
22:35 71.1 °F 53.1 °F 29.86 in Calm   3.0 mph 53% 0.00 in 0.00 W/m2
22:40 71.0 °F 53.5 °F 29.86 in East 2.0 mph 3.0 mph 54% 0.00 in 0.00 W/m2
22:45 71.0 °F 53.5 °F 29.86 in East 1.0 mph 4.0 mph 54% 0.00 in 0.00 W/m2
22:50 70.9 °F 53.4 °F 29.86 in Calm   4.0 mph 54% 0.00 in 0.00 W/m2
22:55 70.9 °F 54.0 °F 29.86 in Calm   5.0 mph 55% 0.00 in 0.00 W/m2
23:00 70.8 °F 53.8 °F 29.86 in Calm   4.0 mph 55% 0.00 in 0.00 W/m2
23:05 70.8 °F 53.8 °F 29.85 in ESE 2.0 mph 6.0 mph 55% 0.00 in 0.00 W/m2
23:10 70.7 °F 53.8 °F 29.85 in ESE 4.0 mph 4.0 mph 55% 0.00 in 0.00 W/m2
23:15 70.6 °F 53.7 °F 29.85 in Calm   4.0 mph 55% 0.00 in 0.00 W/m2
23:20 70.6 °F 53.7 °F 29.85 in ESE 1.0 mph 6.0 mph 55% 0.00 in 0.00 W/m2
23:25 70.6 °F 53.7 °F 29.85 in ESE 1.0 mph 6.0 mph 55% 0.00 in 0.00 W/m2
23:30 70.5 °F 53.6 °F 29.85 in Calm   8.0 mph 55% 0.00 in 0.00 W/m2
23:35 70.4 °F 54.0 °F 29.85 in ESE 4.0 mph 8.0 mph 56% 0.00 in 0.00 W/m2
23:40 70.3 °F 53.4 °F 29.85 in ESE 2.0 mph 6.0 mph 55% 0.00 in 0.00 W/m2
23:45 70.2 °F 53.8 °F 29.84 in ESE 2.0 mph 7.0 mph 56% 0.00 in 0.00 W/m2
23:50 70.1 °F 53.7 °F 29.85 in ESE 1.0 mph 7.0 mph 56% 0.00 in 0.00 W/m2
23:55 70.0 °F 53.1 °F 29.85 in ESE 1.0 mph 7.0 mph 55% 0.00 in 0.00 W/m2
Foresthill Weather
 WU-history PHP script courtesy of   Juneau County Weather.
powered by Cumulus v1.9.3 (1059)
Ambient Weather VWS v14.00
Top Contact Website Map Copyright © 2007 - 2018 Foresthillweather.com Never base important decisions on this or any weather information obtained from the Internet